Preview of NWS' New Version of Forecast
This preview is not operational and should not be used for support decisions.

Regional Weather Roundup (RWR)

Issued by National Weather Service (NWS)

                            
000
ASCA42 TJSJ 171010
RWRPR 
PUERTO RICO/U.S. VIRGIN ISLANDS HOURLY WEATHER ROUNDUP
NATIONAL WEATHER SERVICE SAN JUAN PR
600 AM AST SUN FEB 17 2019

PRZ001>002-007>008-010-171100-
PUERTO RICO
  
CITY           SKY/WX    TMP DP  RH WIND       PRES   REMARKS
SAN JUAN LMM   PTCLDY    79  70  73 CALM      30.03R                  
$$

VIZ001>002-171100-
U.S. VIRGIN ISLANDS
  
CITY           SKY/WX    TMP DP  RH WIND       PRES   REMARKS
CHARLOTTE AMA  MOCLDY    77  73  88 E8        30.03R                  
CHRISTIANSTED  PTCLDY    75  73  94 NE3       30.04R                  
$$

HOURLY WEATHER ROUNDUP FOR THE NEWS MEDIA
  
CITY           SKY/WX    TMP DP  RH WIND       PRES   REMARKS
ORLANDO        FAIR      64  62  93 S3        29.95R                  
NEW YORK       FAIR      26  15  63 N9        30.10R WCI  17          
NEWARK         FAIR      26  14  60 N14       30.09S WCI  14          
CHICAGO        CLOUDY    24  19  81 E13       29.92F WCI  12          
HARTFORD       FAIR      25  12  58 N6        30.03R WCI  18          
BOSTON         FAIR      25   8  48 NW9       30.05R WCI  15          
DALLAS         DRIZZLE   45  44  97 N12       29.75R FOG              
PHILADELPHIA   FAIR      27  15  61 N8        30.09R WCI  19          
LOS ANGELES    PTCLDY    52  41  66 NW13G23   30.08S                  
WASHINGTON DC  FAIR      24  18  77 CALM      30.07R